Rechercher aéroport 
image banner adimage banner adimage banner ad
image banner ad

O21 - Hoopa

Situé à Hoopa, United States

ICAO - O21, IATA -

Données fournies par Airmate  

Information générale

Coordonnées: N41°2'29" W123°40'4"
Élévation : 356 feet MSL.
Variation magnétique : 17° East
Voir autres Aéroports à California

Données opérationnelles

Special qualification required
Heure actuelle UTC:
Heure actuelle locale:
Météo à : KACV - Arcata ( 38 km )
METAR: KACV 231411Z AUTO 00000KT 1/4SM R32/1600V2200FT FG VV002 09/09 A3003 RMK AO2 T00940094
TAF: KACV 231359Z 2314/2412 VRB03KT 2SM BR SCT003 TEMPO 2314/2315 1/4SM FG VV002 FM231800 28006KT 6SM HZ SCT004 SCT250 FM240300 19003KT 1SM BR SCT002
Voir NOTAMs / SUP AIP / TFR affectant cet aéroport [VIEW]
Fréquences de communication: [VIEW]

Pistes:

Identifiant RWYQFULongueur (ft)Largeur (ft)SurfaceLDA (ft)
14232550ASPH
32232550ASPH

Coordonnées de l'aéroport

Adresse: Hoopa United States

Vue satellite de O21